Regional Weather Roundup
Issued by NWS

Home | Current Version | Previous Version | Graphics & Text | Print | Product List | Glossary On
Versions: 1 2 3 4 5 6 7 8 9 10 11 12 13 14 15 16 17 18 19 20 21 22 23 24 25 26 27
000
ASUS45 KBOU 240207
RWRCO

WEATHER ROUNDUP FOR COLORADO
NATIONAL WEATHER SERVICE DENVER/BOULDER CO
700 PM MST MON JAN 23 2017

NOTE: "FAIR" INDICATES FEW OR NO CLOUDS BELOW 12000 FEET WITH NO
SIGNIFICANT WEATHER AND/OR OBSTRUCTIONS TO VISIBILITY.

COZ001>005-013-030-031-240300-
...NORTHWEST COLORADO...

CITY           SKY/WX    TMP DP  RH WIND       PRES   REMARKS
CRAIG          MOCLDY    33  19  56 VRB7      29.55R WCI  27
HAYDEN         FAIR      27  21  80 NE6       29.55S WCI  20
MEEKER         CLOUDY    32  21  64 SW12      29.54S WCI  23
MOUNT WERNER   NOT AVBL
STEAMBOAT SPGS CLOUDY    28  23  84 E13       29.56F WCI  17
WALDEN           N/A     25  19  80 SW12      29.56R WCI  14
$$

COZ006>008-011-240300-
...WEST CENTRAL VALLEYS...

CITY           SKY/WX    TMP DP  RH WIND       PRES   REMARKS
GRAND JUNCTION MOCLDY    37  30  75 S8        29.58R
MONTROSE       MOCLDY    33  25  72 E6        29.66R WCI  28
EAGLE          CLOUDY    30  25  80 CALM      29.62S
RIFLE          CLOUDY    32  29  88 E6        29.59S WCI  26
DELTA          CLOUDY    39  27  62 SW6       29.63S
NUCLA          CLOUDY    34  25  69 CALM      29.67S
$$

COZ017>023-064>068-240300-
...SOUTHWEST COLORADO...

CITY           SKY/WX    TMP DP  RH WIND       PRES   REMARKS
DURANGO        SNOW      31  29  92 W15       29.65S VSB 1/2 WCI  20
CORTEZ         LGT SNOW  30  29  96 SE6       29.69F FOG     WCI  24
PAGOSA SPRINGS FLURRIES  34  31  90 SW16      29.63F WCI  23
TELLURIDE      NOT AVBL
WOLF CREEK PAS CLOUDY    18  18 100 S30G58    29.58S WCI  -2
$$

COZ009-010-012-014-032>034-037-058>063-240300-
...CENTRAL COLORADO...

CITY           SKY/WX    TMP DP  RH WIND       PRES   REMARKS
ASPEN          LGT SNOW  27  24  89 NW14G20   29.56S FOG     WCI  16
BUENA VISTA    CLOUDY    28  26  91 CALM      29.55S
COPPER MTN     LGT SNOW  19  14  79 MISG      29.55F VSB 1
BERTHOUD PASS  CLOUDY    12   1  62 MISG      29.54F
COTTONWOOD PAS LGT SNOW  28  25  86 CALM      29.56R
GUNNISON       MOCLDY    28  23  81 VRB7      29.61R WCI  21
KREMMLING      MOCLDY    34  28  80 SW13G21   29.55R WCI  25
LEADVILLE      LGT SNOW  20  16  84 N3        29.54R FOG
MONARCH PASS   CLOUDY    18  14  86 SW20G39   29.65F WCI   1
SALIDA         CLOUDY    32  28  86 W7        29.64R WCI  26
SUNLIGHT         N/A     14  10  85 SW21G39   29.57R WCI  -4
WILKERSON PASS FOG      N/A N/A N/A SW8       29.59F VSB 1
$$

COZ069>075-240300-
...SAN LUIS VALLEY/SANGRE DE CRISTO MOUNTAINS...

CITY           SKY/WX    TMP DP  RH WIND       PRES   REMARKS
ALAMOSA        MOCLDY    32  26  78 SW14      29.60F WCI  22
LA VETA PASS   LGT SNOW  27  23  86 NE22G46   29.58S WCI  12
SAGUACHE       MIX PCPN  30  28  93 SE5       29.59F WCI  25
$$

COZ035-036-038>040-240300-
...NORTHERN COLORADO FRONT RANGE...

CITY           SKY/WX    TMP DP  RH WIND       PRES   REMARKS
DENVER INTL AP MOCLDY    34  27  75 NE6       29.49F WCI  29
DMNS CITY PARK   N/A     37  28  71 SE7G13    29.48F
AURORA         MOCLDY    39  23  53 CALM      29.50F
FRONT RANGE AP PTCLDY    41  27  56 S12       29.50F
ERIE MUNI ARPT CLOUDY    40  29  64 CALM      29.49F
BOULDER MUN AP CLOUDY    41  28  60 NW5       29.48F
CENTENNIAL     MOCLDY    37  23  56 SW7       29.49F
BROOMFIELD     MOCLDY    41  28  60 VRB5      29.50F
FORT COLLINS   FAIR      37  26  64 SE9       29.50F
LONGMONT       FAIR      40  29  63 CALM      29.51F
$$

COZ041-046-047-076>085-087-088-240300-
...PIKES PEAK/PALMER DIVIDE AND SOUTHERN FOOTHILLS...

CITY           SKY/WX    TMP DP  RH WIND       PRES   REMARKS
COLO. SPRINGS  FAIR      37  20  50 S9        29.53F
A. F. ACADEMY  FAIR      33  22  65 VRB6      29.52F WCI  27
SCHRIEVER AFB  FAIR      34  22  62 SW5       29.53F WCI  30
ELLICOTT       FAIR     N/A N/A N/A S13       29.52F
FALCON         FAIR      34  19  53 SW6       29.56S WCI  29
FORT CARSON    FAIR      41  21  44 SW6       29.50F
LIMON          FAIR      39  24  55 SW9       29.51F
MONUMENT HILL  FAIR      32  23  69 SW5       29.53F WCI  27
TRINIDAD       MOCLDY    38  30  73 W13       29.58F
$$

COZ042>045-048>051-090-091-240300-
...NORTHEAST COLORADO...

CITY           SKY/WX    TMP DP  RH WIND       PRES   REMARKS
GREELEY ARPT   MOCLDY    36  26  67 E8        29.52F
AKRON          MOCLDY    35  25  66 E9        29.53S WCI  28
BURLINGTON     FAIR      34  27  75 E5        29.52F WCI  30
WRAY           NOT AVBL
STERLING       CLOUDY    37  28  70 N6        29.55S
HOLYOKE        FAIR      37  32  81 N7        29.57R
FORT MORGAN    CLOUDY    37  26  63 NE12      29.54S
$$

COZ086-089-092>099-240300-
...SOUTHEAST COLORADO...

CITY           SKY/WX    TMP DP  RH WIND       PRES   REMARKS
PUEBLO         FAIR      45  26  47 SW8       29.51F
LA JUNTA       FAIR      40  29  64 S8        29.53F
LAMAR          FAIR      37  28  70 NW6       29.53S
SPRINGFIELD      N/A     33  22  63 SW9       29.57F WCI  25
$$




USA.gov is the U.S. government's official web portal to all federal, state and local government web resources and services.